Regional Weather Roundup
Issued by NWS

Home | Current Version | Previous Version | Graphics & Text | Print | Product List | Glossary On
Versions: 1 2 3 4 5 6 7 8 9 10 11 12 13 14 15 16 17 18 19 20 21 22 23 24 25 26 27 28 29 30 31 32 33 34 35 36 37 38 39 40 41 42 43 44 45 46 47 48 49 50
000
ASUS43 KMKX 272221
RWRWI

WISCONSIN REGIONAL WEATHER ROUNDUP
NATIONAL WEATHER SERVICE MILWAUKEE/SULLIVAN WI
500 PM CDT TUE JUN 27 2017

NOTE: "FAIR" INDICATES FEW OR NO CLOUDS BELOW 12,000 FEET WITH NO
SIGNIFICANT WEATHER AND/OR OBSTRUCTIONS TO VISIBILITY.

WIZ001-002-006>008-014>016-023>028-272300-
NORTHWEST WISCONSIN

CITY           SKY/WX    TMP DP  RH WIND       PRES   REMARKS
SUPERIOR ARPT  NOT AVBL
ASHLAND        MOSUNNY   74  49  41 SW10      29.90F
HAYWARD        SUNNY     73  43  33 SW14G22   29.93F
SIREN          SUNNY     75  42  30 S17       29.91F
CUMBERLAND     SUNNY     70  43  37 S13       29.93F
RICE LAKE      SUNNY     74  42  31 S12       29.95F
CHETEK         SUNNY     73  49  41 S8        29.94F
LADYSMITH      SUNNY     74  45  36 SW9       29.97F
EAU CLAIRE     SUNNY     75  44  33 SW14G21   29.95F
MENOMONIE      SUNNY     75  45  33 SE12      29.93F
NEW RICHMOND   MOSUNNY   74  42  31 S15G22    29.93F
OSCEOLA        MOSUNNY   74  40  29 S15G22    29.94F
$$

WIZ003>005-009-010-017-018-272300-
NORTH CENTRAL WISCONSIN

CITY           SKY/WX    TMP DP  RH WIND       PRES   REMARKS
MANITOWISH WTR SUNNY     72  47  42 W13       29.94F
ARBOR VITAE    MOSUNNY   72  47  40 S12       29.95F
WOODRUFF       MOSUNNY   72  47  40 S12       29.95F
RHINELANDER    MOSUNNY   71  47  42 SW12      29.98F
EAGLE RIVER    PTSUNNY   69  43  39 W9        29.95F
LAND O LAKES   MOSUNNY   73  43  34 SW6       29.95F
PHILLIPS       SUNNY     71  48  43 SW10G20   29.96S
TOMAHAWK       NOT AVBL
MEDFORD        MOSUNNY   71  47  42 SW8       29.98F
MERRILL        MOSUNNY   71  48  43 W10       29.98F
$$

WIZ029-030-035-036-043>047-272300-
CENTRAL WISCONSIN

CITY           SKY/WX    TMP DP  RH WIND       PRES   REMARKS
WAUSAU         MOSUNNY   71  48  43 SW7       29.97F
MOSINEE        PTSUNNY  N/A N/A N/A SW6       30.01F
MARSHFIELD     SUNNY     73  47  39 SW12      29.98F
STEVENS POINT  MOSUNNY   71  45  39 SW12G18   30.00F
WAUPACA        MOSUNNY   77  44  30 SW12      29.99F
WAUTOMA        PTSUNNY   75  48  38 SW8       30.01F
WISC RAPIDS    MOSUNNY   74  49  41 SW10      30.01F
CAMP DOUGLAS   PTSUNNY   73  48  40 SW6       30.00F
$$

WIZ011>013-019>022-031-037>040-048>050-272300-
NORTHEAST WISCONSIN

CITY           SKY/WX    TMP DP  RH WIND       PRES   REMARKS
ANTIGO         MOSUNNY   70  50  48 SW10G17   29.99F
SHAWANO        MOSUNNY   75  46  35 SW10      29.97S
OCONTO         SUNNY     75  47  37 W9        29.95F
STURGEON BAY     N/A     69  53  56 S9        29.98F
GREEN BAY      PTSUNNY   74  51  44 SW7       29.98F
MANITOWOC      SUNNY     74  46  36 W10       29.99F
APPLETON       PTSUNNY   72  43  35 SW9       29.99F
CLINTONVILLE   MOSUNNY   73  43  33 SW10G16   29.98F
OSHKOSH        MOSUNNY   73  48  41 MISG      30.00F
$$

WIZ032>034-041-042-053>061-272300-
SOUTHWEST WISCONSIN

CITY           SKY/WX    TMP DP  RH WIND       PRES   REMARKS
LA CROSSE      MOSUNNY   80  46  30 SE13      29.97F
SPARTA         SUNNY     74  47  38 SW3G16    30.00F
VIROQUA        MOSUNNY   73  46  38 S9        30.02F
BOSCOBEL       SUNNY     75  46  35 SW7       30.01F
PRAIRIE DU CHI CLOUDY    74  41  30 S6        30.00F
PLATTEVILLE    SUNNY     74  47  37 SW10      30.04F
$$

WIZ056-057-062-063-064-067-068-272300-
SOUTH CENTRAL WISCONSIN

CITY           SKY/WX    TMP DP  RH WIND       PRES   REMARKS
REEDSBURG      SUNNY     74  48  40 SW8       30.01F
BARABOO/DELLS  SUNNY     74  46  36 SW10      30.02F
LONE ROCK      SUNNY     76  46  34 SW6       30.02F
MINERAL POINT  SUNNY     73  41  31 SW10      30.04F
MADISON        PTSUNNY   73  46  38 W7        30.02F
MIDDLETON      SUNNY     75  46  34 S7        30.03F
WATERTOWN      NOT AVBL
MONROE         MOSUNNY   73  43  33 SW14      30.04F
JANESVILLE     MOSUNNY   75  43  31 SW7       30.03F
$$

WIZ051-052-058>065-066-070>072-272300-
SOUTHEAST WISCONSIN

CITY           SKY/WX    TMP DP  RH WIND       PRES   REMARKS
MILWAUKEE      MOSUNNY   74  46  36 W7G18     30.03F
WAUKESHA       MOSUNNY   70  45  40 SW8       30.05F
MILWAUKEE/TIMM MOSUNNY   73  41  31 W9        30.04F
RACINE         MOSUNNY   70  49  47 S13       30.06F
KENOSHA        SUNNY     74  49  41 NW5       30.05F
FOND DU LAC    MOSUNNY   74  44  34 VRB6      30.01F
SHEBOYGAN      MOSUNNY   74  49  41 W8        30.01F
WEST BEND      PTSUNNY   72  43  35 W9        30.03S
JUNEAU         PTSUNNY   72  47  41 S7        30.04F
$$

LSZ147-162-272300-
LAKE SUPERIOR

STATION/POSITION TIME  TEMP    WIND        PRES    WAVE
                       AIR SEA DIR/SP/G            HT/PER
                 (UTC) (F)     (DEG/KT/KT) (MB)    (FT/S)
W MID LAKE BUOY  2150   52 39  220/  8/  8 1012.6F   1
DEVILS ISLAND    2200   69     200/  5/  7 1011.6F
SAXON HARBOR     2040   74     230/  8/ 15 1012.5F
$$

LMZ867-665-643>646-272300-
LAKE MICHIGAN

STATION/POSITION TIME  TEMP    WIND        PRES    WAVE
                       AIR SEA DIR/SP/G            HT/PER
                 (UTC) (F)     (DEG/KT/KT) (MB)    (FT/S)
CHAMBERS ISLAND  2140   72     160/  4/ 10 1014.6F
S GREEN BAY BUOY 2200   70     200/  8/ 10 1014.3
N MID LAKE BUOY  2150   59 58  190/ 10/ 12 1015.9F   1
NORTHPORT PIER   2140   66     170/  9/ 13 1014.9F
KEWAUNEE LAKESHO 2154   56     180/ 13/ 15 1015.1F
SHEBOYGAN LAKESH 2200   60     170/ 20/ 21 1015.8F
PORT WASHINGTON  2140   63     190/  8/ 11 1017.6F
ATWATER BUOY     2109   62 57  150/ 12/ 14 1017.0F
MILWAUKEE LAKESH 2200   62     140/ 14/ 16   N/A
S MID LAKE BUOY  2150   63 62  170/ 10/ 10 1017.9F   1
KENOSHA   LAKESH 2200   63     160/ 12/ 15 1016.9
$$

TC  - TEMPERATURE IN CELSIUS
VSB - VISIBILITY IN STATUTE MILES
WCI - WIND CHILL INDEX
HX  - HEAT INDEX





USA.gov is the U.S. government's official web portal to all federal, state and local government web resources and services.